Theta_e
290 289 288 288 289 288 288 289 291 292 293 293 294 294 296 296 297 298 298 298 298 298
288 288 288 289 290 290 290 290 290 292 293 293 293 293 293 293 294 297 298 297 297 299
287 288 288 288 289 290 290 291 290 290 290 290 291 291 292 292 293 293 295 297 298 298
286 286 287 288 288 288 289 290 290 290 290 290 290 290 290 291 292 293 293 294 296 297
286 286 286 286 286 287 287 288 288 288 288 289 290 291 290 290 292 292 293 293 294 294
285 284 284 284 284 285 285 286 286 287 286 287 288 288 289 289 289 290 291 293 293 295
283 283 283 283 284 284 285 285 285 285 285 286 286 286 287 287 288 289 290 292 294 295
283 283 283 283 283 284 284 284 284 284 284 284 285 285 285 286 286 286 288 290 292 293
283 282 282 283 283 283 283 283 283 283 283 283 284 286 288 287 286 285 285 286 288 291
282 282 282 282 282 282 282 282 281 282 282 282 284 287 286 285 285 285 286 286 286 287
281 281 281 282 281 281 281 281 281 281 282 283 284 286 286 284 281 282 283 284 285 286
281 281 281 281 281 281 280 281 281 282 281 282 283 285 285 283 282 281 280 283 284 285
280 281 280 280 280 281 281 281 282 281 280 280 281 285 285 282 280 279 280 281 282 283
282 282 281 281 278 280 281 281 281 281 281 279 279 281 284 284 280 279 278 279 280 282
Wind_Speed
11 8 9 12 13 12 11 12 14 13 15 14 13 12 13 11 12 13 13 16 12 12
10 12 12 15 14 13 13 14 15 16 16 15 17 16 14 12 15 13 13 15 17 15
13 12 13 14 16 17 15 16 16 17 16 16 18 18 16 14 15 16 13 13 16 15
13 13 14 15 17 17 18 17 19 19 19 18 17 18 19 17 17 19 18 17 17 18
13 13 14 15 16 16 18 18 20 20 20 19 18 17 17 18 17 18 18 18 19 20
13 13 15 17 17 17 18 18 18 18 19 19 18 18 17 17 17 18 20 20 21 19
13 15 16 17 17 17 18 18 17 18 18 18 18 18 18 18 18 18 18 20 20 18
12 14 14 15 15 18 17 15 16 17 17 16 15 12 15 16 16 18 19 19 18 18
12 13 13 14 15 17 16 15 16 17 17 16 11 22 23 23 17 19 18 18 18 16
11 12 13 14 17 16 16 16 17 18 18 17 14 19 20 20 8 14 16 17 16 13
12 12 12 13 15 15 12 13 16 18 17 14 11 22 22 20 11 8 5 1 8 13
10 11 12 13 15 14 12 13 16 15 17 15 16 29 27 16 10 14 15 10 7 5
8 10 11 11 11 11 11 13 13 13 13 18 18 32 30 21 11 14 12 15 18 29
7 9 9 11 6 9 11 12 13 12 11 14 18 23 36 33 15 13 14 15 15 15
Wind_Direction
293 290 297 299 300 295 295 291 289 290 286 277 267 262 257 255 250 254 260 257 254 258
302 293 291 296 292 295 289 293 293 290 290 297 296 288 279 271 268 261 256 252 255 249
309 303 304 298 288 288 293 294 289 281 276 279 280 281 275 268 264 260 257 256 252 246
312 310 306 298 300 302 301 293 287 284 282 277 273 274 273 263 261 258 255 251 252 256
316 314 309 306 306 302 299 300 297 294 289 284 278 270 265 270 267 261 257 250 243 244
321 318 314 311 310 307 304 299 296 293 291 288 283 278 268 259 258 260 260 256 250 243
320 320 318 317 314 306 307 304 304 300 296 291 285 278 273 266 258 254 251 252 252 247
315 322 312 315 312 317 316 311 309 307 300 295 287 281 274 265 254 252 251 245 242 242
320 322 319 319 321 324 322 321 317 318 312 305 300 296 294 283 259 248 240 243 243 239
324 327 325 323 331 329 332 329 337 326 323 320 318 336 338 340 283 247 235 233 234 235
335 334 330 331 336 337 333 337 334 324 326 336 349 5 3 0 359 12 30 162 214 221
335 335 333 338 340 341 336 348 334 333 342 353 13 23 19 8 17 34 34 34 44 134
334 339 341 337 339 348 347 345 337 343 355 5 16 30 32 28 27 36 40 44 58 66
356 346 350 336 326 355 349 340 350 352 360 12 15 22 34 37 35 40 46 46 53 62